CW5398 Weather Reports


Display with metric or nautical units.
time (UTC)temp
F
wind
direction
speed
MPH
gust
MPH
rain 1hr
in
rain 24hr
in
rain mn
in
humidity
%
barometer
mb
20260508091016 46 267 0.0 0.0 0.00 0.00 0.00 100 1015.9
20260508090015 46 267 0.0 0.0 0.00 0.00 0.00 100 1015.9
20260508085015 46 267 0.0 0.0 0.00 0.00 0.00 100 1015.9
20260508084016 46 267 0.0 0.0 0.00 0.00 0.00 100 1015.6
20260508083016 46 267 0.0 0.0 0.00 0.00 0.00 100 1015.6
20260508082016 46 267 0.0 0.0 0.00 0.00 0.00 100 1015.8
20260508081035 46 267 0.0 0.0 0.00 0.00 0.00 100 1015.9
20260508080056 46 267 0.0 0.0 0.00 0.00 0.00 100 1015.9
20260508075015 46 267 0.0 0.0 0.00 0.00 0.00 100 1015.8
20260508074015 46 267 0.0 0.0 0.00 0.00 0.00 100 1016.0
20260508073015 46 267 0.0 0.0 0.00 0.00 0.00 100 1016.0
20260508072016 46 267 0.0 0.0 0.00 0.00 0.00 100 1016.1
20260508071016 46 267 0.0 0.0 0.00 0.00 0.00 100 1016.0
20260508070015 46 267 0.0 0.0 0.00 0.00 0.00 100 1016.0
20260508065018 46 267 0.0 0.0 0.00 0.00 0.00 100 1016.4
20260508064017 46 267 0.0 0.0 0.00 0.00 0.00 100 1016.1
20260508063037 46 267 0.0 0.0 0.00 0.00 0.00 100 1016.1
20260508062017 47 267 0.0 0.0 0.00 0.00 0.00 100 1016.4
20260508061017 47 267 0.0 0.0 0.00 0.00 0.00 100 1016.4
20260508060017 47 267 0.0 0.0 0.00 0.00 0.00 100 1016.4
20260508055017 47 267 0.0 0.0 0.00 0.00 0.00 100 1016.5
20260508054017 47 267 0.0 0.0 0.00 0.00 0.00 100 1016.4
20260508053017 47 267 0.0 0.0 0.00 0.00 0.00 100 1016.4
20260508052022 47 267 0.0 0.0 0.00 0.00 0.00 100 1016.5
20260508051017 48 267 0.0 0.0 0.00 0.00 0.00 100 1016.4
20260508050017 48 267 0.0 0.0 0.00 0.00 0.00 99 1016.4
20260508045017 49 267 0.0 0.0 0.00 0.00 0.00 98 1016.4
20260508044017 49 267 0.0 0.0 0.00 0.00 0.00 98 1016.4
20260508043017 49 267 0.0 0.0 0.00 0.00 0.00 98 1016.4
20260508042017 50 267 0.0 0.0 0.00 0.00 0.00 97 1016.4
20260508041017 50 267 0.0 0.0 0.00 0.00 0.00 96 1016.5
20260508040017 51 267 0.0 0.0 0.00 0.00 0.00 94 1016.5
20260508035037 52 267 0.0 0.0 0.00 0.00 0.00 92 1016.6
20260508034037 52 267 0.0 0.0 0.00 0.00 0.00 91 1016.5
20260508033016 53 267 0.0 0.0 0.00 0.00 0.00 89 1016.5
20260508032017 54 267 0.0 0.0 0.00 0.00 0.00 87 1016.5
20260508031016 55 267 0.0 0.0 0.00 0.00 0.00 86 1016.5
20260508030016 55 267 0.0 0.0 0.00 0.00 0.00 85 1016.5
20260508025016 56 267 0.0 0.0 0.00 0.00 0.00 85 1016.7
20260508024017 56 270 0.0 1.0 0.00 0.00 0.00 85 1016.9
20260508023037 56 267 0.0 0.0 0.00 0.00 0.00 84 1016.9
20260508022016 56 270 0.0 3.0 0.00 0.00 0.00 84 1017.0
20260508021017 57 270 0.0 3.0 0.00 0.00 0.00 83 1017.0
20260508020017 58 270 2.0 11.0 0.00 0.00 0.00 81 1017.0
20260508015016 60 203 0.0 2.0 0.00 0.00 0.00 80 1017.0
20260508014017 60 203 0.0 1.0 0.00 0.00 0.00 76 1017.1
20260508013016 60 203 0.0 4.0 0.00 0.00 0.00 76 1017.1
20260508012016 60 203 0.0 3.0 0.00 0.00 0.00 77 1017.1
20260508011037 60 203 0.0 3.0 0.00 0.00 0.00 78 1017.1
20260508010017 60 203 1.0 4.0 0.00 0.00 0.00 77 1017.1
20260508005017 60 203 1.0 5.0 0.00 0.00 0.00 78 1017.4
20260508004016 59 203 0.0 2.0 0.00 0.00 0.00 81 1017.4
20260508003017 59 203 1.0 6.0 0.00 0.00 0.00 81 1017.4
20260508002016 59 203 1.0 4.0 0.00 0.00 0.00 81 1017.5
20260508001016 59 203 2.0 6.0 0.00 0.00 0.00 80 1017.5
20260508000016 60 203 2.0 5.0 0.00 0.00 0.00 80 1017.5
20260507235016 60 203 2.0 6.0 0.00 0.00 0.00 80 1017.5
20260507234016 60 203 1.0 4.0 0.00 0.00 0.00 81 1017.5
20260507233016 59 203 2.0 6.0 0.00 0.00 0.00 81 1017.5
20260507232036 60 203 2.0 5.0 0.00 0.00 0.00 81 1017.6
20260507231016 60 203 1.0 4.0 0.00 0.00 0.00 79 1017.7
20260507230016 61 203 1.0 7.0 0.00 0.00 0.00 77 1017.7
20260507225056 60 203 1.0 4.0 0.00 0.00 0.00 79 1017.9
20260507224016 60 203 1.0 4.0 0.00 0.00 0.00 80 1018.0
20260507223016 60 203 4.0 7.0 0.00 0.00 0.00 78 1018.0
20260507222016 62 203 1.0 6.0 0.00 0.00 0.00 77 1018.1
20260507221036 62 203 3.0 7.0 0.00 0.00 0.00 74 1018.2
20260507220016 63 203 1.0 5.0 0.00 0.00 0.00 73 1018.2
20260507215016 63 203 1.0 6.0 0.00 0.00 0.00 73 1018.4
20260507214036 63 203 1.0 6.0 0.00 0.00 0.00 75 1018.6
20260507213016 63 203 3.0 7.0 0.00 0.00 0.00 76 1018.6
20260507212016 63 203 2.0 5.0 0.00 0.00 0.00 75 1018.7
20260507211016 63 203 3.0 7.0 0.00 0.00 0.00 75 1018.8
20260507210016 62 203 1.0 5.0 0.00 0.00 0.00 78 1018.8
20260507205016 62 203 2.0 6.0 0.00 0.00 0.00 75 1019.1
20260507204016 62 203 2.0 7.0 0.00 0.00 0.00 77 1019.2
20260507203016 61 225 1.0 5.0 0.00 0.00 0.00 77 1019.2
20260507202016 61 225 2.0 5.0 0.00 0.00 0.00 76 1019.4
20260507201015 60 180 2.0 7.0 0.00 0.00 0.00 77 1019.6
20260507200016 60 180 2.0 7.0 0.00 0.00 0.00 78 1019.6
20260507195016 60 180 2.0 8.0 0.00 0.00 0.00 79 1019.6
20260507194016 60 180 3.0 9.0 0.00 0.00 0.00 78 1019.7
20260507193016 60 225 1.0 4.0 0.00 0.00 0.00 80 1019.7
20260507192016 60 225 0.0 3.0 0.00 0.00 0.00 79 1019.7
20260507191015 60 225 0.0 3.0 0.00 0.00 0.00 81 1019.7
20260507190036 60 225 0.0 3.0 0.00 0.00 0.00 85 1019.7
20260507185015 59 225 0.0 2.0 0.00 0.00 0.00 84 1019.8
20260507184015 59 225 1.0 7.0 0.00 0.00 0.00 84 1019.9
20260507183016 58 203 1.0 3.0 0.00 0.00 0.00 82 1019.9
20260507182016 58 203 1.0 5.0 0.00 0.00 0.00 83 1019.9
20260507181016 58 203 0.0 4.0 0.00 0.00 0.00 83 1019.9
20260507180016 58 203 1.0 4.0 0.00 0.00 0.00 86 1019.8
20260507175016 57 207 0.0 0.0 0.00 0.00 0.00 87 1019.9
20260507174015 56 203 1.0 3.0 0.00 0.00 0.00 86 1020.0
20260507173036 56 203 1.0 3.0 0.00 0.01 0.00 88 1020.0
20260507172015 55 203 1.0 3.0 0.00 0.01 0.00 88 1020.0
20260507171036 55 203 0.0 2.0 0.00 0.01 0.00 89 1020.1
20260507170015 54 207 0.0 0.0 0.00 0.01 0.00 90 1020.1
20260507165015 54 207 0.0 0.0 0.00 0.01 0.00 87 1020.2
20260507164015 53 207 0.0 0.0 0.00 0.01 0.00 90 1020.2
20260507163035 53 203 0.0 2.0 0.00 0.01 0.00 88 1020.2
20260507162038 53 203 0.0 1.0 0.00 0.01 0.00 91 1020.2
20260507161017 53 207 0.0 0.0 0.00 0.01 0.00 91 1020.2
20260507160017 52 207 0.0 0.0 0.00 0.01 0.00 92 1020.2
20260507155017 52 203 0.0 2.0 0.00 0.01 0.00 94 1020.3
20260507154037 52 203 0.0 2.0 0.00 0.02 0.00 96 1020.3
20260507153017 52 203 1.0 4.0 0.00 0.02 0.00 98 1020.3
20260507152017 51 203 0.0 3.0 0.00 0.02 0.00 97 1020.3
20260507151017 51 207 0.0 0.0 0.00 0.02 0.00 97 1020.3
20260507150017 50 207 0.0 0.0 0.00 0.02 0.00 98 1020.3
20260507145017 50 207 0.0 0.0 0.00 0.02 0.00 98 1020.3
20260507144017 50 207 0.0 0.0 0.00 0.02 0.00 100 1020.2
20260507143017 50 207 0.0 0.0 0.00 0.03 0.00 100 1020.2
20260507142017 49 207 0.0 0.0 0.00 0.03 0.00 100 1020.2
20260507141017 49 207 0.0 0.0 0.00 0.03 0.00 100 1020.1
20260507140017 49 207 0.0 0.0 0.00 0.03 0.00 100 1020.1
20260507135017 49 207 0.0 0.0 0.00 0.03 0.00 100 1020.1
20260507134057 49 207 0.0 0.0 0.00 0.03 0.00 100 1020.2
20260507133017 49 207 0.0 0.0 0.00 0.03 0.00 100 1020.2
20260507132037 49 207 0.0 0.0 0.00 0.03 0.00 100 1020.2
20260507131037 49 207 0.0 0.0 0.00 0.03 0.00 100 1020.1
20260507130037 49 207 0.0 0.0 0.00 0.03 0.00 100 1020.1
20260507125017 49 207 0.0 0.0 0.00 0.03 0.00 100 1020.2
20260507124017 49 207 0.0 0.0 0.00 0.03 0.00 100 1020.2
20260507123017 49 207 0.0 0.0 0.00 0.04 0.00 100 1020.2
20260507122017 49 212 0.0 0.0 0.00 0.04 0.00 100 1020.3
20260507121016 49 212 0.0 0.0 0.00 0.04 0.00 100 1020.3
20260507120017 49 212 0.0 0.0 0.00 0.04 0.00 100 1020.3
20260507115016 49 212 0.0 0.0 0.00 0.04 0.00 100 1020.4
20260507114016 49 212 0.0 0.0 0.00 0.04 0.00 100 1020.4
20260507113016 49 212 0.0 0.0 0.00 0.04 0.00 100 1020.4
20260507112017 49 212 0.0 0.0 0.00 0.04 0.00 100 1020.2
20260507111016 49 212 0.0 0.0 0.00 0.04 0.00 100 1020.3
20260507110056 49 212 0.0 0.0 0.00 0.04 0.00 100 1020.3
20260507105016 49 212 0.0 0.0 0.00 0.04 0.00 100 1020.3
20260507104016 49 212 0.0 0.0 0.00 0.04 0.00 100 1020.4
20260507103016 49 212 0.0 0.0 0.00 0.04 0.00 100 1020.4
20260507102016 49 212 0.0 0.0 0.00 0.04 0.00 100 1020.5
20260507101016 49 212 0.0 0.0 0.00 0.04 0.00 99 1020.4
20260507100016 50 212 0.0 0.0 0.00 0.04 0.00 99 1020.4
20260507095017 50 212 0.0 0.0 0.00 0.04 0.00 98 1020.5
20260507094016 50 203 0.0 1.0 0.00 0.04 0.00 99 1020.7
20260507093016 50 212 0.0 0.0 0.00 0.04 0.00 99 1020.7
20260507092016 50 203 1.0 5.0 0.00 0.04 0.00 99 1020.8